| time (UTC) | temp F | wind direction | speed MPH | gust MPH | rain 1hr in | rain 24hr in | rain mn in | humidity % | barometer mb |
| 20260504223716 | 50 | 68 | 5.0 | 7.0 | 0.00 | 0.02 | 0.02 | 99 | 1013.8 |
| 20260504223211 | 51 | 67 | 5.0 | 7.0 | 0.00 | 0.02 | 0.02 | 99 | 1014.1 |
| 20260504222709 | 51 | 67 | 5.0 | 7.0 | 0.00 | 0.02 | 0.02 | 99 | 1014.1 |
| 20260504222205 | 50 | 350 | 4.0 | 6.0 | 0.00 | 0.02 | 0.02 | 99 | 1013.8 |
| 20260504221703 | 50 | 350 | 4.0 | 6.0 | 0.00 | 0.02 | 0.02 | 99 | 1013.8 |
| 20260504221200 | 52 | 7 | 4.0 | 4.0 | 0.00 | 0.02 | 0.02 | 99 | 1013.9 |
| 20260504220656 | 52 | 7 | 4.0 | 4.0 | 0.00 | 0.02 | 0.02 | 99 | 1013.9 |
| 20260504220154 | 48 | 323 | 2.0 | 2.0 | 0.00 | 0.02 | 0.02 | 99 | 1014.2 |
| 20260504215650 | 48 | 323 | 2.0 | 2.0 | 0.00 | 0.02 | 0.02 | 99 | 1014.2 |
| 20260504215148 | 46 | 77 | 2.0 | 2.0 | 0.00 | 0.02 | 0.02 | 99 | 1014.9 |
| 20260504214643 | 46 | 77 | 2.0 | 2.0 | 0.00 | 0.02 | 0.02 | 99 | 1014.9 |
| 20260504214140 | 46 | 296 | 4.0 | 4.0 | 0.05 | 0.02 | 0.02 | 99 | 1014.9 |
| 20260504213636 | 46 | 296 | 4.0 | 4.0 | 0.05 | 0.02 | 0.02 | 99 | 1014.9 |
| 20260504213133 | 46 | 312 | 6.0 | 7.0 | 0.00 | 0.01 | 0.01 | 99 | 1014.9 |
| 20260504212629 | 46 | 312 | 6.0 | 7.0 | 0.00 | 0.01 | 0.01 | 99 | 1014.9 |
| 20260504212126 | 46 | 334 | 6.0 | 8.0 | 0.07 | 0.01 | 0.01 | 99 | 1014.8 |
| 20260504211624 | 46 | 334 | 6.0 | 8.0 | 0.07 | 0.01 | 0.01 | 99 | 1014.8 |
| 20260504211120 | 48 | 274 | 8.0 | 9.0 | 0.00 | 0.00 | 0.00 | 99 | 1014.9 |
| 20260504210618 | 48 | 274 | 8.0 | 9.0 | 0.00 | 0.00 | 0.00 | 99 | 1014.9 |
| 20260504210114 | 49 | 282 | 4.0 | 8.0 | 0.00 | 0.00 | 0.00 | 99 | 1014.6 |
| 20260504205612 | 49 | 282 | 4.0 | 8.0 | 0.00 | 0.00 | 0.00 | 99 | 1014.6 |
| 20260504205109 | 50 | 259 | 5.0 | 7.0 | 0.00 | 0.00 | 0.00 | 99 | 1014.1 |
| 20260504204608 | 50 | 259 | 5.0 | 7.0 | 0.00 | 0.00 | 0.00 | 99 | 1014.1 |
| 20260504204106 | 53 | 259 | 10.0 | 11.0 | 0.00 | 0.00 | 0.00 | 99 | 1013.8 |
| 20260504203604 | 53 | 259 | 10.0 | 11.0 | 0.00 | 0.00 | 0.00 | 99 | 1013.8 |
| 20260504203101 | 51 | 326 | 8.0 | 10.0 | 0.00 | 0.00 | 0.00 | 99 | 1013.9 |
| 20260504202556 | 51 | 326 | 8.0 | 10.0 | 0.00 | 0.00 | 0.00 | 99 | 1013.9 |
| 20260504202054 | 51 | 262 | 10.0 | 10.0 | 0.00 | 0.00 | 0.00 | 99 | 1013.7 |
| 20260504201550 | 51 | 262 | 10.0 | 10.0 | 0.00 | 0.00 | 0.00 | 99 | 1013.7 |
| 20260504201049 | 53 | 273 | 5.0 | 7.0 | 0.00 | 0.00 | 0.00 | 99 | 1013.4 |
| 20260504200544 | 53 | 273 | 5.0 | 7.0 | 0.00 | 0.00 | 0.00 | 99 | 1013.4 |
| 20260504200042 | 55 | 87 | 6.0 | 9.0 | 0.00 | 0.00 | 0.00 | 99 | 1013.3 |
| 20260504195537 | 55 | 87 | 6.0 | 9.0 | 0.00 | 0.00 | 0.00 | 99 | 1013.3 |
| 20260504195034 | 55 | 201 | 9.0 | 11.0 | 0.00 | 0.00 | 0.00 | 99 | 1013.3 |
| 20260504194531 | 55 | 201 | 9.0 | 11.0 | 0.00 | 0.00 | 0.00 | 99 | 1013.3 |
| 20260504194026 | 55 | 262 | 4.0 | 8.0 | 0.00 | 0.00 | 0.00 | 99 | 1013.8 |
| 20260504193523 | 55 | 262 | 4.0 | 8.0 | 0.00 | 0.00 | 0.00 | 99 | 1013.8 |
| 20260504193022 | 56 | 322 | 6.0 | 10.0 | 0.00 | 0.00 | 0.00 | 99 | 1013.8 |
| 20260504192520 | 56 | 322 | 6.0 | 10.0 | 0.00 | 0.00 | 0.00 | 99 | 1013.8 |
| 20260504192018 | 55 | 44 | 7.0 | 10.0 | 0.00 | 0.00 | 0.00 | 99 | 1013.2 |
| 20260504191515 | 55 | 44 | 7.0 | 10.0 | 0.00 | 0.00 | 0.00 | 99 | 1013.2 |
| 20260504191011 | 57 | 42 | 8.0 | 10.0 | 0.00 | 0.00 | 0.00 | 99 | 1013.2 |
| 20260504190507 | 57 | 42 | 8.0 | 10.0 | 0.00 | 0.00 | 0.00 | 99 | 1013.2 |
| 20260504190003 | 59 | 134 | 12.0 | 14.0 | 0.00 | 0.00 | 0.00 | 99 | 1013.4 |
| 20260504185500 | 59 | 134 | 12.0 | 14.0 | 0.00 | 0.00 | 0.00 | 99 | 1013.4 |
| 20260504184957 | 61 | 73 | 16.0 | 19.0 | 0.00 | 0.00 | 0.00 | 99 | 1013.3 |
| 20260504184452 | 61 | 73 | 16.0 | 19.0 | 0.00 | 0.00 | 0.00 | 99 | 1013.3 |
| 20260504183948 | 61 | 99 | 15.0 | 17.0 | 0.00 | 0.00 | 0.00 | 99 | 1013.4 |
| 20260504183446 | 61 | 99 | 15.0 | 17.0 | 0.00 | 0.00 | 0.00 | 99 | 1013.4 |
| 20260504182944 | 58 | 150 | 17.0 | 18.0 | 0.00 | 0.00 | 0.00 | 99 | 1013.4 |
| 20260504182440 | 58 | 150 | 17.0 | 18.0 | 0.00 | 0.00 | 0.00 | 99 | 1013.4 |
| 20260504181938 | 59 | 90 | 16.0 | 18.0 | 0.00 | 0.00 | 0.00 | 99 | 1013.3 |
| 20260504181434 | 59 | 90 | 16.0 | 18.0 | 0.00 | 0.00 | 0.00 | 99 | 1013.3 |
| 20260504180933 | 59 | 82 | 13.0 | 18.0 | 0.00 | 0.00 | 0.00 | 99 | 1013.2 |
| 20260504180432 | 59 | 82 | 13.0 | 18.0 | 0.00 | 0.00 | 0.00 | 99 | 1013.2 |
| 20260504175930 | 62 | 53 | 8.0 | 10.0 | 0.00 | 0.00 | 0.00 | 99 | 1013.4 |
| 20260504175426 | 62 | 53 | 8.0 | 10.0 | 0.00 | 0.00 | 0.00 | 99 | 1013.4 |
| 20260504174924 | 60 | 85 | 8.0 | 10.0 | 0.00 | 0.00 | 0.00 | 99 | 1013.6 |
| 20260504174421 | 60 | 85 | 8.0 | 10.0 | 0.00 | 0.00 | 0.00 | 99 | 1013.6 |
| 20260504173919 | 59 | 153 | 13.0 | 15.0 | 0.00 | 0.00 | 0.00 | 99 | 1013.7 |
| 20260504173414 | 59 | 153 | 13.0 | 15.0 | 0.00 | 0.00 | 0.00 | 99 | 1013.7 |
| 20260504172913 | 61 | 77 | 7.0 | 9.0 | 0.00 | 0.00 | 0.00 | 99 | 1013.8 |
| 20260504172408 | 61 | 77 | 7.0 | 9.0 | 0.00 | 0.00 | 0.00 | 99 | 1013.8 |
| 20260504171905 | 60 | 86 | 13.0 | 15.0 | 0.00 | 0.00 | 0.00 | 99 | 1013.8 |
| 20260504171402 | 60 | 86 | 13.0 | 15.0 | 0.00 | 0.00 | 0.00 | 99 | 1013.8 |
| 20260504170859 | 60 | 58 | 18.0 | 21.0 | 0.00 | 0.00 | 0.00 | 99 | 1013.8 |
| 20260504170355 | 60 | 58 | 18.0 | 21.0 | 0.00 | 0.00 | 0.00 | 99 | 1013.8 |
| 20260504160314 | 57 | 136 | 11.0 | 13.0 | 0.00 | 0.00 | 0.00 | 99 | 1013.7 |
| 20260504150739 | 54 | 118 | 14.0 | 16.0 | 0.00 | 0.00 | 0.00 | 99 | 1014.2 |
| 20260504150236 | 54 | 118 | 14.0 | 16.0 | 0.00 | 0.00 | 0.00 | 99 | 1014.2 |
| 20260504141205 | 53 | 51 | 9.0 | 13.0 | 0.00 | 0.00 | 0.00 | 99 | 1014.3 |
| 20260504140702 | 52 | 83 | 9.0 | 13.0 | 0.00 | 0.00 | 0.00 | 99 | 1014.1 |
| 20260504140157 | 52 | 83 | 9.0 | 13.0 | 0.00 | 0.00 | 0.00 | 99 | 1014.1 |
| 20260504130626 | 46 | 132 | 7.0 | 8.0 | 0.00 | 0.00 | 0.00 | 99 | 1013.7 |
| 20260504130123 | 46 | 124 | 7.0 | 9.0 | 0.00 | 0.00 | 0.00 | 99 | 1013.8 |
| 20260504110514 | 45 | 88 | 9.0 | 9.0 | 0.00 | 0.00 | 0.00 | 99 | 1013.8 |
| 20260504100430 | 44 | 145 | 9.0 | 11.0 | 0.00 | 0.00 | 0.00 | 99 | 1013.9 |
| 20260504081823 | 46 | 149 | 6.0 | 7.0 | 0.00 | 0.00 | 0.00 | 99 | 1015.2 |
| 20260504081320 | 46 | 149 | 6.0 | 7.0 | 0.00 | 0.00 | 0.00 | 99 | 1015.2 |
| 20260504080816 | 46 | 121 | 5.0 | 6.0 | 0.00 | 0.00 | 0.00 | 99 | 1015.3 |
| 20260504080313 | 46 | 121 | 5.0 | 6.0 | 0.00 | 0.00 | 0.00 | 99 | 1015.3 |
| 20260504070240 | 48 | 97 | 4.0 | 4.0 | 0.00 | 0.00 | 0.00 | 99 | 1016.1 |
| 20260504060201 | 49 | 21 | 2.0 | 2.0 | 0.00 | 0.00 | 0.00 | 99 | 1016.6 |
| 20260504050629 | 50 | 242 | 3.0 | 3.0 | 0.00 | 0.00 | 0.00 | 99 | 1016.9 |
| 20260504050126 | 50 | 242 | 3.0 | 3.0 | 0.00 | 0.00 | 0.00 | 99 | 1016.9 |
| 20260504045623 | 50 | 314 | 4.0 | 4.0 | 0.00 | 0.00 | 0.00 | 99 | 1016.8 |
| 20260504045118 | 50 | 314 | 4.0 | 4.0 | 0.00 | 0.00 | 0.00 | 99 | 1016.8 |
| 20260504044616 | 51 | 259 | 4.0 | 6.0 | 0.00 | 0.00 | 0.00 | 99 | 1016.9 |
| 20260504044112 | 51 | 259 | 4.0 | 6.0 | 0.00 | 0.00 | 0.00 | 99 | 1016.9 |
| 20260504043610 | 52 | 234 | 4.0 | 4.0 | 0.00 | 0.00 | 0.00 | 99 | 1017.1 |
| 20260504043107 | 52 | 234 | 4.0 | 4.0 | 0.00 | 0.00 | 0.00 | 99 | 1017.1 |
| 20260504042604 | 53 | 278 | 6.0 | 7.0 | 0.00 | 0.00 | 0.00 | 99 | 1016.9 |
| 20260504042100 | 53 | 278 | 6.0 | 7.0 | 0.00 | 0.00 | 0.00 | 99 | 1016.9 |
| 20260504041556 | 54 | 265 | 2.0 | 2.0 | 0.00 | 0.00 | 0.00 | 99 | 1016.9 |
| 20260504041053 | 54 | 265 | 2.0 | 2.0 | 0.00 | 0.00 | 0.00 | 99 | 1016.9 |
| 20260504040550 | 54 | 199 | 2.0 | 2.0 | 0.00 | 0.00 | 0.00 | 99 | 1016.8 |
| 20260504040047 | 55 | 83 | 1.0 | 1.0 | 0.00 | 0.00 | 0.00 | 99 | 1017.1 |
| 20260504035543 | 55 | 83 | 1.0 | 1.0 | 0.00 | 0.00 | 0.00 | 99 | 1017.1 |
| 20260504035040 | 54 | 145 | 2.0 | 2.0 | 0.00 | 0.00 | 0.00 | 99 | 1017.2 |
| 20260504034538 | 54 | 145 | 2.0 | 2.0 | 0.00 | 0.00 | 0.00 | 99 | 1017.2 |
| 20260504034034 | 55 | 129 | 0.0 | 0.0 | 0.00 | 0.00 | 0.00 | 99 | 1017.1 |
| 20260504033533 | 55 | 129 | 0.0 | 0.0 | 0.00 | 0.00 | 0.00 | 99 | 1017.1 |
| 20260504033030 | 55 | 156 | 4.0 | 7.0 | 0.00 | 0.00 | 0.00 | 99 | 1017.1 |
| 20260504032527 | 55 | 156 | 4.0 | 7.0 | 0.00 | 0.00 | 0.00 | 99 | 1017.1 |
| 20260504032023 | 55 | 27 | 2.0 | 3.0 | 0.00 | 0.00 | 0.00 | 99 | 1016.9 |
| 20260504031520 | 55 | 27 | 2.0 | 3.0 | 0.00 | 0.00 | 0.00 | 99 | 1016.9 |
| 20260504031016 | 56 | 87 | 4.0 | 6.0 | 0.00 | 0.00 | 0.00 | 99 | 1016.8 |
| 20260504030514 | 56 | 87 | 4.0 | 6.0 | 0.00 | 0.00 | 0.00 | 99 | 1016.8 |
| 20260504030010 | 56 | 251 | 2.0 | 4.0 | 0.00 | 0.00 | 0.00 | 99 | 1016.7 |
| 20260504025507 | 56 | 251 | 2.0 | 4.0 | 0.00 | 0.00 | 0.00 | 99 | 1016.7 |
| 20260504025004 | 56 | 27 | 2.0 | 2.0 | 0.00 | 0.00 | 0.00 | 99 | 1016.7 |
| 20260504024500 | 56 | 27 | 2.0 | 2.0 | 0.00 | 0.00 | 0.00 | 99 | 1016.7 |
| 20260504023958 | 56 | 166 | 8.0 | 9.0 | 0.00 | 0.00 | 0.00 | 99 | 1016.3 |
| 20260504023454 | 56 | 166 | 8.0 | 9.0 | 0.00 | 0.00 | 0.00 | 99 | 1016.3 |
| 20260504022950 | 56 | 153 | 5.0 | 7.0 | 0.00 | 0.00 | 0.00 | 99 | 1016.3 |
| 20260504022446 | 56 | 153 | 5.0 | 7.0 | 0.00 | 0.00 | 0.00 | 99 | 1016.3 |
| 20260504021943 | 57 | 178 | 7.0 | 9.0 | 0.00 | 0.00 | 0.00 | 99 | 1016.4 |
| 20260504021440 | 57 | 178 | 7.0 | 9.0 | 0.00 | 0.00 | 0.00 | 99 | 1016.4 |
| 20260504020937 | 57 | 154 | 6.0 | 8.0 | 0.00 | 0.00 | 0.00 | 99 | 1016.3 |
| 20260504020434 | 57 | 154 | 6.0 | 8.0 | 0.00 | 0.00 | 0.00 | 99 | 1016.3 |
| 20260504015931 | 57 | 172 | 3.0 | 4.0 | 0.00 | 0.00 | 0.00 | 99 | 1016.3 |
| 20260504015427 | 57 | 172 | 3.0 | 4.0 | 0.00 | 0.00 | 0.00 | 99 | 1016.3 |
| 20260504014923 | 57 | 139 | 3.0 | 6.0 | 0.00 | 0.00 | 0.00 | 99 | 1016.3 |
| 20260504014419 | 57 | 139 | 3.0 | 6.0 | 0.00 | 0.00 | 0.00 | 99 | 1016.3 |
| 20260504013916 | 58 | 211 | 5.0 | 7.0 | 0.00 | 0.00 | 0.00 | 99 | 1016.1 |
| 20260504013415 | 58 | 211 | 5.0 | 7.0 | 0.00 | 0.00 | 0.00 | 99 | 1016.1 |
| 20260504012910 | 58 | 271 | 4.0 | 6.0 | 0.00 | 0.00 | 0.00 | 99 | 1016.1 |
| 20260504012408 | 58 | 271 | 4.0 | 6.0 | 0.00 | 0.00 | 0.00 | 99 | 1016.1 |
| 20260504011905 | 59 | 246 | 5.0 | 7.0 | 0.00 | 0.00 | 0.00 | 99 | 1016.3 |
| 20260504011402 | 59 | 246 | 5.0 | 7.0 | 0.00 | 0.00 | 0.00 | 99 | 1016.3 |
| 20260504010858 | 59 | 139 | 5.0 | 8.0 | 0.00 | 0.00 | 0.00 | 99 | 1016.1 |
| 20260504010354 | 59 | 139 | 5.0 | 8.0 | 0.00 | 0.00 | 0.00 | 99 | 1016.1 |
| 20260504005850 | 59 | 273 | 6.0 | 10.0 | 0.00 | 0.00 | 0.00 | 99 | 1016.1 |
| 20260504005347 | 59 | 273 | 6.0 | 10.0 | 0.00 | 0.00 | 0.00 | 99 | 1016.1 |
| 20260504004845 | 59 | 244 | 4.0 | 6.0 | 0.00 | 0.00 | 0.00 | 99 | 1016.1 |
| 20260504004343 | 59 | 244 | 4.0 | 6.0 | 0.00 | 0.00 | 0.00 | 99 | 1016.1 |
| 20260504003839 | 59 | 161 | 10.0 | 13.0 | 0.00 | 0.00 | 0.00 | 99 | 1016.2 |
| 20260504003336 | 59 | 161 | 10.0 | 13.0 | 0.00 | 0.00 | 0.00 | 99 | 1016.2 |
| 20260504002832 | 60 | 274 | 6.0 | 10.0 | 0.00 | 0.00 | 0.00 | 99 | 1015.9 |
| 20260504002329 | 60 | 274 | 6.0 | 10.0 | 0.00 | 0.00 | 0.00 | 99 | 1015.9 |
| 20260504001827 | 61 | 289 | 4.0 | 7.0 | 0.00 | 0.00 | 0.00 | 99 | 1016.1 |
| 20260504001324 | 61 | 289 | 4.0 | 7.0 | 0.00 | 0.00 | 0.00 | 99 | 1016.1 |
| 20260504000821 | 62 | 262 | 6.0 | 9.0 | 0.00 | 0.00 | 0.00 | 99 | 1016.1 |
| 20260504000318 | 62 | 262 | 6.0 | 9.0 | 0.00 | 0.00 | 0.00 | 99 | 1016.1 |
| 20260503235815 | 60 | 152 | 16.0 | 19.0 | 0.00 | 0.00 | 0.00 | 99 | 1016.4 |
| 20260503235313 | 60 | 152 | 16.0 | 19.0 | 0.00 | 0.00 | 0.00 | 99 | 1016.4 |
| 20260503234810 | 60 | 199 | 15.0 | 18.0 | 0.00 | 0.00 | 0.00 | 99 | 1015.9 |
| 20260503234308 | 60 | 199 | 15.0 | 18.0 | 0.00 | 0.00 | 0.00 | 99 | 1015.9 |
| 20260503233806 | 60 | 166 | 10.0 | 15.0 | 0.00 | 0.00 | 0.00 | 99 | 1015.9 |
| 20260503233301 | 60 | 166 | 10.0 | 15.0 | 0.00 | 0.00 | 0.00 | 99 | 1015.9 |
| 20260503232758 | 60 | 129 | 4.0 | 6.0 | 0.00 | 0.00 | 0.00 | 99 | 1016.4 |
| 20260503232255 | 60 | 129 | 4.0 | 6.0 | 0.00 | 0.00 | 0.00 | 99 | 1016.4 |
| 20260503231753 | 61 | 164 | 10.0 | 15.0 | 0.00 | 0.00 | 0.00 | 99 | 1016.3 |
| 20260503231250 | 61 | 164 | 10.0 | 15.0 | 0.00 | 0.00 | 0.00 | 99 | 1016.3 |
| 20260503230745 | 61 | 125 | 9.0 | 13.0 | 0.00 | 0.00 | 0.00 | 99 | 1016.4 |
| 20260503230243 | 61 | 125 | 9.0 | 13.0 | 0.00 | 0.00 | 0.00 | 99 | 1016.4 |
| 20260503225741 | 60 | 180 | 14.0 | 17.0 | 0.00 | 0.00 | 0.00 | 99 | 1016.6 |
| 20260503225241 | 60 | 180 | 14.0 | 17.0 | 0.00 | 0.00 | 0.00 | 99 | 1016.6 |
| 20260503224738 | 61 | 256 | 7.0 | 9.0 | 0.00 | 0.00 | 0.00 | 99 | 1016.2 |
| 20260503224236 | 61 | 256 | 7.0 | 9.0 | 0.00 | 0.00 | 0.00 | 99 | 1016.2 |